Wind_Speed
23 25 28 26 22 13 8 8 4 8 7 8 4 9 5 4 4 6 5 7 4 7 11 8 5 5 9 2 5 6 2 8 10 17 4 4 14 15 17 12 19 15 7 8
21 24 27 27 21 16 9 3 4 6 11 4 6 5 8 8 3 5 2 3 1 5 7 2 9 1 3 4 1 3 3 9 5 6 6 10 12 10 11 15 18 14 16 10
19 23 25 27 19 11 7 4 2 4 3 4 5 5 3 6 3 5 3 2 3 11 9 9 4 6 2 2 5 5 5 7 7 6 3 16 19 9 11 14 11 12 8 23
18 21 23 25 18 10 7 4 5 5 7 7 7 4 3 2 3 2 1 2 4 8 6 12 9 6 6 5 5 5 6 10 12 3 8 9 12 14 9 16 17 13 20 19
16 18 21 23 18 11 4 3 2 4 4 1 4 3 7 5 6 5 4 4 2 4 4 9 9 5 5 6 5 5 6 3 10 10 5 5 5 6 6 8 5 8 20 19
15 15 18 21 21 15 5 2 3 5 4 3 3 6 4 5 2 6 6 4 2 5 5 5 7 6 4 4 8 4 6 9 7 14 13 4 10 12 10 8 6 11 14 18
13 13 14 17 17 13 10 6 7 3 4 5 6 6 6 7 7 6 6 3 2 4 4 5 6 3 2 4 4 7 6 9 8 12 9 13 4 1 4 6 5 8 13 13
11 12 12 12 14 11 8 6 6 3 2 6 6 6 7 8 6 6 6 6 4 2 5 5 5 6 5 5 3 6 6 7 7 11 9 5 8 7 7 12 10 2 12 10
8 9 10 9 9 9 4 8 5 6 1 6 5 5 3 3 6 6 5 4 1 3 6 2 7 2 5 4 6 5 4 6 6 7 9 14 13 11 4 2 10 10 7 7
8 6 7 8 6 6 4 3 7 7 4 7 5 1 1 1 2 3 5 5 5 6 2 2 2 1 3 3 4 5 7 7 8 8 7 1 10 7 5 9 6 10 7 6
8 5 5 6 5 5 4 3 5 7 4 7 4 3 3 4 4 4 8 5 5 6 3 2 2 3 3 2 5 6 4 3 4 8 10 10 12 6 6 10 10 10 7 6
6 3 3 4 4 4 2 3 1 4 7 8 1 5 3 4 6 3 3 6 1 5 3 1 3 3 4 5 2 6 4 3 2 4 3 5 5 3 8 6 8 5 6 7
6 2 3 2 2 3 2 4 4 5 5 6 7 9 12 9 6 4 6 2 4 3 6 1 3 2 4 4 6 6 7 5 3 2 7 6 9 7 6 4 4 5 5 6
5 3 2 2 2 2 2 4 4 5 5 5 6 4 4 7 9 6 5 4 1 2 5 4 1 1 4 6 4 4 7 6 8 10 9 4 10 10 8 7 6 6 6 4
3 3 3 3 2 2 3 4 2 2 7 5 5 6 5 7 6 8 9 5 2 3 3 4 2 2 3 7 9 9 8 11 8 7 6 9 10 15 12 11 10 9 8 7
3 3 4 3 2 3 5 5 5 1 4 4 4 9 5 4 7 8 9 8 5 2 3 1 3 1 3 3 3 10 13 10 11 11 12 6 5 3 12 12 11 11 9 8
2 4 5 4 3 3 7 5 4 0 3 4 3 6 6 5 6 7 5 8 3 4 0 5 4 2 5 2 4 10 13 10 10 13 8 8 7 7 9 12 12 9 10 10
3 4 4 0 3 4 6 3 2 2 8 4 3 3 6 11 6 4 4 5 4 4 6 1 2 4 3 4 10 11 10 12 11 9 9 10 11 9 13 13 13 11 10 11
3 2 2 1 3 3 4 2 3 5 5 4 3 3 2 6 5 3 3 1 4 2 3 3 4 3 5 9 10 12 13 10 11 11 9 12 8 10 12 12 12 12 11 12
1 1 5 4 3 3 2 2 4 1 3 5 5 1 2 5 3 4 4 4 4 3 3 5 3 4 12 12 11 8 4 6 9 11 13 16 14 12 12 13 12 14 14 15
2 5 1 3 6 3 2 2 3 3 4 5 4 4 3 2 3 3 4 3 2 2 4 3 2 3 7 1 5 2 3 10 8 9 6 7 6 13 14 14 16 15 14 15
1 3 2 3 4 2 3 3 3 4 4 5 6 4 4 3 2 3 3 2 3 2 4 2 2 5 8 2 6 3 4 11 13 11 10 12 21 17 13 16 17 20 19 17
2 4 4 2 2 3 5 6 4 4 4 5 5 5 4 3 4 3 3 3 2 1 3 3 5 5 3 2 5 4 5 10 11 15 14 11 12 16 14 13 18 20 19 23
3 4 2 5 5 6 7 5 1 4 1 5 3 3 4 3 4 3 3 2 2 1 2 5 3 4 1 3 5 4 7 8 7 8 8 10 13 14 15 18 20 19 20 18
3 3 4 7 8 8 1 1 2 3 4 3 2 1 3 4 3 2 2 3 2 4 7 3 2 1 2 4 5 6 6 6 6 4 9 13 14 14 14 17 17 19 22 18
3 5 7 7 7 7 6 8 7 4 4 2 2 3 3 5 5 5 4 2 5 3 3 3 6 5 5 5 4 4 7 8 11 12 9 10 12 11 12 13 14 16 15 12
4 6 7 8 8 7 7 6 5 2 2 4 1 3 3 4 3 3 1 4 5 7 6 8 6 4 3 3 5 6 9 10 10 11 10 10 10 11 13 13 14 16 19 14
Wind_Direction
0 6 7 2 358 343 287 275 288 29 289 260 334 48 22 272 60 115 66 357 352 162 303 139 186 177 37 9 302 253 352 289 164 203 171 320 298 232 219 237 223 264 287 101
358 6 7 6 5 357 316 330 25 25 274 287 98 121 95 37 49 10 135 107 279 171 236 267 171 71 46 16 334 360 1 239 191 175 200 214 246 225 269 241 259 251 253 130
357 5 7 5 7 353 322 285 200 95 59 11 102 132 80 123 62 69 17 56 211 176 177 266 183 160 151 59 36 322 294 299 329 355 341 191 211 233 238 263 239 243 245 135
358 1 9 5 7 358 304 333 54 350 13 55 56 54 76 123 119 79 325 121 323 296 181 170 196 168 171 181 144 240 262 225 263 298 344 343 181 204 221 235 252 275 128 135
360 360 9 7 5 336 306 350 13 108 75 338 145 137 48 82 80 332 82 88 84 233 308 2 149 209 224 168 178 247 253 239 197 242 228 325 267 181 267 284 292 260 122 116
2 358 8 12 12 8 45 50 84 282 179 205 64 42 48 74 73 61 56 37 42 102 70 360 15 331 10 14 278 234 268 265 216 226 192 238 248 259 229 225 236 321 163 138
1 358 0 15 20 31 348 23 289 300 98 43 73 95 87 79 57 87 69 2 308 56 213 214 228 206 194 236 232 267 255 249 250 255 159 221 147 358 272 236 136 74 86 122
356 360 356 6 17 29 13 10 320 336 56 101 134 127 111 123 139 95 62 65 34 213 242 199 173 176 193 156 259 244 275 234 235 248 209 149 158 166 183 168 163 332 127 138
346 355 354 355 6 15 354 29 338 292 314 91 106 150 245 198 115 156 106 97 28 231 274 122 261 127 11 156 169 244 211 277 249 221 257 231 77 90 35 74 182 174 174 157
340 342 351 355 357 6 357 29 4 282 295 124 210 267 62 352 357 64 137 149 171 249 83 263 324 41 357 270 248 173 200 209 215 232 222 193 103 127 171 215 111 146 156 135
333 321 341 353 1 10 335 68 0 323 307 126 217 168 192 169 244 258 111 198 193 195 217 191 131 263 190 250 282 287 249 197 240 245 240 231 125 139 233 88 132 138 144 133
322 287 306 348 2 22 336 250 349 313 269 42 246 238 233 293 4 348 174 3 346 18 198 209 161 255 206 225 263 192 266 235 245 250 358 81 149 346 113 146 143 148 149 134
318 265 291 306 347 7 348 325 327 252 265 193 200 208 213 230 242 296 297 150 49 189 331 286 217 200 190 237 244 244 211 223 215 257 252 198 184 150 166 181 168 151 142 143
312 274 292 270 307 353 359 298 329 269 294 280 123 152 186 222 233 236 289 78 41 102 244 265 320 331 315 270 255 229 254 169 234 240 249 215 216 207 193 182 175 172 160 169
306 285 277 286 275 283 303 273 206 342 309 324 82 165 177 197 203 225 220 207 181 246 254 277 295 1 296 293 283 274 237 230 230 248 274 220 243 203 211 192 192 195 193 185
305 301 292 297 266 246 258 205 186 274 320 275 217 88 158 175 211 207 203 222 214 240 278 336 298 24 284 290 256 248 254 279 257 257 256 248 249 194 192 194 193 195 201 207
304 312 307 298 233 218 279 14 58 210 272 245 231 171 142 175 182 196 215 206 227 241 130 233 240 196 168 232 252 279 293 280 287 246 225 210 203 197 199 197 193 189 219 214
293 313 329 283 182 226 222 194 238 256 260 260 259 130 169 186 202 160 214 178 195 227 239 249 169 159 193 247 250 263 292 295 268 267 206 229 197 203 185 199 198 207 208 220
313 329 123 167 235 247 58 286 222 202 283 294 228 287 124 172 238 125 191 250 219 212 223 213 188 165 221 235 271 296 301 270 230 244 291 229 222 207 202 201 205 219 225 227
285 184 225 176 65 129 126 191 168 222 238 223 251 356 210 211 158 170 178 190 223 221 179 164 220 247 244 261 278 326 301 220 216 221 225 230 225 221 217 218 219 225 230 240
213 220 25 62 148 235 238 227 219 181 233 207 218 221 224 158 223 209 211 241 261 255 163 221 220 259 218 218 303 295 263 227 235 221 217 218 241 240 235 235 232 235 245 245
295 40 113 179 229 209 250 223 177 218 243 165 205 184 220 148 241 196 204 249 223 247 137 191 236 241 229 294 312 308 227 218 234 256 244 225 227 241 254 255 237 237 230 248
207 233 215 209 181 223 231 202 207 220 188 189 177 192 183 187 217 200 217 236 274 356 200 208 231 142 218 337 322 311 230 228 257 266 275 275 266 261 262 270 288 267 213 220
242 196 239 228 190 229 228 218 319 220 237 124 183 216 207 210 203 206 229 161 260 295 233 238 284 104 270 3 327 290 281 300 319 319 297 290 285 280 281 273 264 263 263 253
252 228 241 225 250 286 246 80 292 298 275 114 232 219 200 204 229 187 157 191 243 248 233 25 53 181 27 358 330 326 314 291 290 351 354 331 316 309 298 282 276 271 264 266
244 236 252 248 266 258 233 203 224 208 248 130 228 249 236 212 164 166 164 212 230 259 79 18 85 30 40 22 323 299 335 331 321 319 311 315 307 303 298 292 285 274 270 282
238 234 228 260 288 291 293 293 286 1 276 267 221 259 335 59 37 45 139 230 264 302 36 57 57 57 13 344 7 350 334 332 327 331 321 308 321 331 308 304 307 297 274 259
Height
808 801 794 788 782 776 772 757 754 758 758 753 751 760 764 776 760 761 766 763 764 773 771 764 776 767 769 771 763 760 752 749 759 761 744 747 745 742 742 754 759 734 733 797
809 803 796 789 783 780 774 757 756 759 755 757 761 769 771 770 766 767 767 770 771 765 779 778 771 774 779 773 766 767 764 757 768 770 765 756 761 749 745 736 731 745 747 794
809 804 798 791 784 781 778 759 758 758 756 756 761 771 774 777 777 776 773 772 769 771 780 772 772 779 781 776 773 787 779 762 771 780 760 749 767 759 757 751 757 750 741 786
809 804 798 793 786 782 779 764 772 772 770 768 768 768 774 779 780 777 776 780 774 768 771 775 778 771 779 779 784 777 766 785 776 775 770 753 754 763 764 765 753 757 770 782
809 806 799 794 788 783 778 767 769 770 774 775 771 785 780 779 783 779 784 783 781 778 775 775 774 773 772 772 775 775 766 781 781 788 782 778 777 772 774 764 759 756 761 788
811 807 802 797 791 784 780 781 779 769 789 773 771 782 783 787 785 789 786 788 785 787 791 787 783 779 778 778 783 779 781 772 780 786 780 789 799 781 775 769 765 764 770 785
811 809 805 800 797 793 790 790 782 770 777 774 780 785 785 788 788 791 790 789 789 797 794 791 784 782 784 786 784 779 784 786 778 780 777 807 784 780 769 774 778 782 787 791
811 809 807 803 800 798 795 793 786 775 779 781 787 786 790 792 792 792 793 797 799 797 791 788 794 792 793 789 789 783 780 784 789 791 780 777 787 790 790 789 802 793 798 804
809 808 808 805 802 800 798 797 795 784 779 780 784 787 787 782 787 792 796 799 798 795 787 793 798 792 793 791 794 787 783 787 791 789 796 788 783 785 786 782 801 802 801 807
809 807 806 805 803 802 800 799 798 790 779 781 785 781 784 785 785 784 792 797 798 795 788 800 804 805 810 811 795 796 797 795 803 791 795 780 786 793 794 810 805 804 804 810
809 807 806 805 804 803 801 799 799 796 780 782 787 788 789 788 784 784 791 794 792 791 798 801 811 814 812 817 809 801 792 802 803 793 791 805 788 798 802 802 805 809 812 816
806 806 805 805 804 803 802 797 800 799 794 785 790 788 790 790 789 785 792 789 790 785 793 800 803 814 801 807 808 799 811 798 811 797 797 793 795 797 801 802 807 810 812 818
806 804 805 805 804 804 803 801 800 798 789 784 786 786 790 792 792 790 787 787 790 794 794 787 789 806 797 805 803 798 795 796 811 805 793 797 798 801 805 807 808 812 815 818
806 804 804 804 804 803 804 802 800 798 790 780 778 787 789 791 791 793 792 793 796 796 794 788 793 802 794 795 792 798 794 793 801 800 796 797 797 799 804 808 811 814 817 820
806 804 803 803 803 803 802 802 801 800 798 780 773 783 785 789 791 794 794 795 797 797 797 795 798 798 799 794 793 793 784 791 798 802 788 791 795 794 800 806 811 814 817 820
805 805 803 802 802 802 803 795 799 800 800 790 776 781 786 788 790 791 793 794 797 800 802 799 805 804 805 808 807 791 786 786 786 787 786 787 789 795 800 804 808 812 816 819
804 804 802 801 801 801 799 798 800 800 800 788 776 773 783 788 789 788 789 793 796 796 804 803 798 809 813 822 815 792 787 785 788 784 787 790 792 797 799 802 807 812 814 816
803 803 802 801 800 801 798 800 800 800 796 788 777 769 777 784 781 787 785 791 796 798 793 797 803 813 813 816 796 789 790 788 788 786 785 786 788 794 799 803 805 809 811 813
802 802 802 802 800 795 797 798 798 800 800 785 776 770 785 778 774 779 785 788 798 792 795 798 799 803 808 795 785 782 782 785 787 789 790 787 788 790 795 799 802 804 805 807
801 803 801 789 796 798 800 799 797 799 793 784 777 765 776 772 771 782 791 791 787 792 790 791 796 798 786 782 777 778 781 784 788 792 794 790 789 789 791 793 796 798 800 802
801 796 790 797 798 798 795 794 793 792 782 769 767 765 772 772 779 783 780 781 778 787 784 788 793 794 774 771 776 778 781 785 782 781 782 784 786 787 787 788 791 795 797 798
795 797 797 798 794 793 795 790 785 788 769 761 763 765 766 772 771 778 778 779 778 781 777 788 796 779 770 772 772 772 777 779 778 778 778 781 782 781 783 785 785 789 790 793
798 795 791 790 793 798 791 782 774 764 756 757 762 769 768 773 771 777 778 777 778 771 777 790 780 767 766 767 770 771 771 775 776 777 777 777 778 780 781 781 781 778 781 786
790 786 799 786 782 772 756 754 758 749 747 752 761 769 770 769 773 773 777 776 772 783 787 783 757 767 766 768 770 770 771 770 771 772 774 776 776 776 777 777 777 777 776 777
785 781 791 767 755 745 745 747 748 749 747 751 763 768 769 771 774 770 777 777 780 773 766 759 773 771 769 770 770 771 770 770 770 773 775 776 775 774 773 774 775 774 773 773
784 777 767 753 750 742 737 741 741 741 745 756 764 765 766 766 768 774 784 783 777 759 758 752 759 769 769 773 776 773 772 772 772 771 771 772 772 772 772 772 772 772 772 771
773 761 753 753 751 747 743 741 738 742 748 760 764 769 764 765 773 786 781 775 763 753 751 761 767 772 775 774 774 775 775 775 774 773 773 773 772 774 772 769 769 768 767 766